Location: Alsip
(41.6689°N, 87.7387°W)
Time: 14:17:10
(UTC+00:00)

Cosmos 614 Rocket - Pass Details

Date: 14 July 2020
Orbit: 732 x 764 km, 74.1° (Epoch: 04 August)

Event Time Altitude Azimuth Distance (km) Brightness Sun altitude
Exits shadow 07:22:44 64° 234° (SW) 818 3.8 -23.7°
Maximum altitude 07:23:25 75° 290° (WNW) 769 3.9 -23.6°
Drops below altitude 10° 07:28:32 10° 16° (NNE) 2,265 7.5 -23.3°
Sets 07:30:55 0° 19° (NNE) 3,198 8.7 -23.1°
